Printer-friendly version

IAU Minor Planet Center

Minor Planet Center

MPEC 2005-R31 : 2005 QZ151

The following Minor Planet Electronic Circular may be linked-to from your own Web pages, but must not otherwise be redistributed electronically.


Read MPEC 2005-R30 Read MPEC 2005-R32


M.P.E.C. 2005-R31                                Issued 2005 Sept. 6, 11:45 UT

     The Minor Planet Electronic Circulars contain information on unusual
         minor planets and routine data on comets.  They are published
   on behalf of Commission 20 of the International Astronomical Union by the
          Minor Planet Center, Smithsonian Astrophysical Observatory,
                          Cambridge, MA 02138, U.S.A.

                  Supported in part by the Brinson Foundation
             Prepared using the Tamkin Foundation Computer Network

                              MPC@CFA.HARVARD.EDU
          URL http://cfa-www.harvard.edu/iau/mpc.html  ISSN 1523-6714

                                  2005 QZ151

Observations:
     K05QF1Z* C2005 08 31.41079 01 38 08.76 +01 38 10.4          20.1   ER031644
     K05QF1Z  C2005 08 31.42228 01 38 10.41 +01 38 19.5          19.8   ER031644
     K05QF1Z  C2005 08 31.43560 01 38 12.34 +01 38 30.6          20.0   ER031644
     K05QF1Z  C2005 09 03.42249 01 46 09.03 +02 21 35.4          19.2   ER031644
     K05QF1Z  C2005 09 03.43381 01 46 10.83 +02 21 45.8          19.7   ER031644
     K05QF1Z  C2005 09 03.44571 01 46 12.72 +02 21 56.7          19.7   ER031644
     K05QF1Z  C2005 09 06.25203 01 54 30.11 +03 07 40.5          19.9 R ER031649
     K05QF1Z  C2005 09 06.25381 01 54 30.32 +03 07 42.9          19.8 R ER031649
     K05QF1Z  C2005 09 06.25558 01 54 30.67 +03 07 45.0          19.6 R ER031649
     K05QF1Z 5C2005 09 06.44225 01 55 04.78 +03 11 01.5          19.0 R ER031673
     K05QF1Z 5C2005 09 06.44479 01 55 05.22 +03 11 04.3                 ER031673
     K05QF1Z 5C2005 09 06.45150 01 55 06.47 +03 11 11.7                 ER031673
     K05QF1Z 5C2005 09 06.45637 01 55 07.35 +03 11 16.5                 ER031673

Observer details:
644 Palomar Mountain/NEAT.  Observers R. Bambery, M. Hicks, K. Lawrence,
    E. Helin, R. Thicksten.  1.2-m Schmidt + CCD.
649 Powell Observatory, Louisburg.  Observers R. Fredrick, R. Trentman.
    0.75-m Newtonian reflector + CCD.
673 Table Mountain Observatory, Wrightwood.  Observer J. Young.  0.6-m f/16
    Cassegrain + CCD.

Orbital elements:
2005 QZ151                                                           PHA 0.004
Epoch 2005 Aug. 18.0 TT = JDT 2453600.5                 MPC
M 328.26126              (2000.0)            P               Q
n   0.34058991     Peri.   61.69911     +0.11851116     -0.99244794
a   2.0307113      Node    21.56410     +0.87818885     +0.08988148
e   0.5972040      Incl.    4.94119     +0.46339989     +0.08347702
P   2.89           H   20.2           G   0.15
From 13 observations 2005 Aug. 31-Sept. 6.

Ephemeris:
2005 QZ151               a,e,i = 2.03, 0.60, 5                   q = 0.8180
Date    TT    R. A. (2000) Decl.     Delta      r     Elong.  Phase     V
2005 09 07    01 56.85   +03 21.1    0.350    1.281   135.5    33.5    19.9
2005 09 17    02 38.23   +07 18.6    0.249    1.192   134.1    37.3    19.1
2005 09 27    03 56.58   +14 23.4    0.168    1.104   123.7    49.1    18.4
2005 10 07    06 33.56   +22 53.9    0.131    1.022    96.0    76.6    18.5
2005 10 17    09 21.42   +21 20.7    0.162    0.947    67.7   103.2    19.9
2005 10 27    10 50.06   +15 50.4    0.235    0.885    56.1   111.2    21.0
2005 11 06    11 38.27   +11 21.0    0.323    0.840    53.6   108.4    21.4
2005 11 16    12 11.80   +07 32.4    0.418    0.819    54.4   101.1    21.6
2005 11 26    12 39.76   +04 01.1    0.512    0.824    56.5    92.3    21.6
2005 12 06    13 05.07   +00 42.7    0.599    0.854    59.4    83.4    21.7
2005 12 16    13 28.37   -02 19.7    0.675    0.905    62.9    75.5    21.8
2005 12 26    13 49.57   -05 02.4    0.737    0.973    67.1    68.7    21.9
2006 01 05    14 08.29   -07 22.7    0.782    1.051    72.1    62.9    22.0
2006 01 15    14 24.07   -09 19.7    0.811    1.136    77.9    57.9    22.1
2006 01 25    14 36.43   -10 54.1    0.825    1.224    84.6    53.2    22.2
2006 02 04    14 44.76   -12 06.3    0.827    1.314    92.4    48.6    22.2

Timothy B. Spahr             (C) Copyright 2005 MPC           M.P.E.C. 2005-R31

Read MPEC 2005-R30 Read MPEC 2005-R32


Our Web policy. Index to the CBAT/MPC/ICQ pages.


Valid HTML 4.01!